Погода в Старокленском

Россия / Тамбовская область     53°12′37″N   40°10′08″E
темп.,
°C
ветер,
м/с
пор.,
м/с
влажн.,
%
обл.,
%
осадки,
мм/ч
давл.,
гПа
погр.,
м
21 апреля, ср
ср2100:00+5всв51296100 4.6 1005637
03:00+5ююз3799100 8.8 1002267
06:00+5ююз1399100 2.3 1003149
09:00+5з2497100 7.9 1006201
12:00+4з4696100 0.2 1008383
15:00+6зюз6883100 0.4 1011815
18:00+6юз3783100 0.0 1012472
21:00+6ю3588100 0.0 1014119
22 апреля, чт
чт2200:00+6ю3893100 0.1 1015241
03:00+5ююз389598 0.4 1016271
06:00+5юз379356 0.1 1018388
09:00+8юз46745 0.1 1019633
12:00+12юз575677 0.0 10201689
15:00+13юз575699 0.1 10191690
18:00+12ю486726 0.0 1019389
21:00+9ю497575 0.0 1020155
23 апреля, пт
пт2300:00+10ю497097 0.0 1020179
03:00+9ю3873100 0.0 1020156
06:00+9ю497682 0.0 1020193
09:00+13ю695889 0.0 1020612
12:00+15ю4749100 0.0 10182048
15:00+16ю684394 0.0 10172264
18:00+14ююв5960100 0.2 1016534
21:00+10ююв613735 0.2 1015290
24 апреля, сб
сб2400:00+10ююв6138195 0.0 1013324
03:00+9ю6148223 0.0 1011391
06:00+9юз5984100 0.0 1010533
09:00+4зсз5694100 2.1 1010601
12:00+5зсз5792100 4.0 1011631
15:00+9з4662100 4.5 10101257
18:00+8зсз3662100 0.8 1010428
21:00+5з3772100 1.2 1011137
25 апреля, вс
вс2500:00+4з35795 0.2 101196
03:00+2зюз378675 0.2 1012168
06:00+2зюз410875 0.0 1013328
09:00+6зюз79655 0.0 10131231
12:00+7зюз8105496 0.9 10141787
15:00+8зюз8114699 1.3 10142235
18:00+6зюз611609 0.6 10141776
21:00+3юз49705 0.6 1015218